[[{"header":{"parameterUnit":"m.s-1","parameterCategory":2,"la1":30.2992,"la2":30.254,"lo1":-89.0895,"lo2":-89.0443,"dy":0.0025,"dx":0.0025,"nx":19,"ny":19,"refTime":"2026-04-15T03:00:00:Z","depth":"0","parameterNumber":2,"parameterNumberName":"U-component_of_CURRENTS"},"data":[0,0,0,-0.1791,-0.1794,-0.1878,-0.1879,-0.1812,-0.1811,0,0,0,0,0,0,0,0,0,0,0,-0.1734,-0.1734,-0.1791,-0.1794,-0.1878,-0.1879,-0.1812,-0.1811,0,0,0,0,0,0,0,0,0,0,0,-0.1733,-0.1734,-0.1734,-0.1794,-0.1878,-0.1879,-0.1813,-0.1787,0,0,0,0,0,0,0,0,0,0,-0.1725,-0.1675,-0.1734,-0.1734,-0.1795,-0.1878,-0.1879,-0.1788,-0.1789,-0.1731,0,-0.1743,0,-0.1793,-0.1805,-0.1805,0,0,0,-0.1773,-0.1675,-0.1735,-0.1734,-0.1796,-0.1878,-0.1834,-0.1789,-0.179,-0.1731,-0.1743,-0.1743,-0.1792,-0.1804,-0.1804,-0.1497,-0.1495,0,0,-0.1769,-0.171,-0.1734,-0.1735,-0.1813,-0.1832,-0.1837,-0.1792,-0.1763,-0.1743,-0.1742,-0.1791,-0.1804,-0.1803,-0.15,-0.1497,0,0,0,-0.1769,-0.1705,-0.1769,-0.1735,-0.1775,-0.1835,-0.1841,-0.1765,-0.1797,-0.1742,-0.179,-0.1803,-0.1802,-0.1503,-0.1499,-0.1441,0,0,0,-0.1765,-0.1709,-0.1767,-0.1727,-0.1777,-0.1789,-0.1814,-0.1799,-0.1798,-0.1791,-0.1803,-0.1801,-0.1506,-0.15,-0.1449,-0.1465,0,0,0,-0.1731,-0.1705,-0.1723,-0.1724,-0.178,-0.1793,-0.1821,-0.1801,-0.1827,-0.1805,-0.1801,-0.1508,-0.1501,-0.1456,-0.1474,-0.1537,0,0,0,-0.1658,-0.1644,-0.172,-0.1718,-0.1779,-0.1757,-0.1822,-0.1827,-0.1808,-0.1803,-0.1505,-0.1499,-0.1459,-0.148,-0.1541,-0.1608,-0.1597,0,0,-0.1604,-0.1635,-0.1642,-0.1715,-0.1671,-0.1745,-0.1624,-0.1669,-0.1671,-0.1512,-0.1507,-0.1447,-0.1475,-0.1538,-0.1245,-0.1247,0,0,0,-0.1603,-0.1579,-0.1586,-0.1586,-0.1613,-0.1555,-0.1577,-0.1551,-0.1456,-0.1636,-0.1334,-0.1352,-0.1397,-0.1439,-0.1436,-0.1402,-0.147,-0.1471,-0.1471,-0.1336,-0.1423,-0.1373,-0.1427,-0.1401,-0.1396,-0.136,-0.1292,-0.131,-0.1234,-0.1221,-0.1113,-0.1143,-0.1146,-0.1103,-0.1101,-0.11,-0.11,-0.11,-0.1176,-0.1157,-0.1202,-0.1204,-0.1189,-0.1095,-0.1066,-0.1102,-0.1038,-0.1029,-0.1077,-0.1266,-0.1143,-0.1096,-0.1094,-0.1095,-0.1096,-0.1096,-0.1097,-0.0979,-0.0992,-0.1029,-0.1012,-0.0948,-0.0952,-0.0939,-0.0951,-0.0993,-0.1012,-0.1143,-0.1146,-0.1197,-0.1061,-0.1061,-0.1061,-0.1062,-0.1062,-0.1062,-0.079,-0.0828,-0.0802,-0.0817,-0.0808,-0.0816,-0.0884,-0.095,-0.1061,-0.1095,-0.1096,-0.1105,-0.1105,-0.1211,-0.1066,-0.1065,-0.1065,-0.1064,-0.1064,-0.0645,-0.0659,-0.0617,-0.0621,-0.0643,-0.0658,-0.0799,-0.1011,-0.1113,-0.1198,-0.1153,-0.1162,-0.1226,-0.1225,-0.1332,-0.1228,-0.1228,-0.1228,-0.1228,-0.0524,-0.0532,-0.0481,-0.0473,-0.0492,-0.0584,-0.0735,-0.0967,-0.1155,-0.1189,-0.1194,-0.1161,-0.1156,-0.1214,-0.1213,-0.1318,-0.1212,-0.1212,-0.1212,-0.0445,-0.0438,-0.0382,-0.0389,-0.0429,-0.0521,-0.0644,-0.0882,-0.1129,-0.1203,-0.1124,-0.1125,-0.1065,-0.1061,-0.1144,-0.1147,-0.1316,0,0]},{"header":{"parameterUnit":"m.s-1","parameterCategory":2,"la1":30.2992,"la2":30.254,"lo1":-89.0895,"lo2":-89.0443,"dy":0.0025,"dx":0.0025,"nx":19,"ny":19,"refTime":"2026-04-15T03:00:00:Z","depth":"0","parameterNumber":3,"parameterNumberName":"V-component_of_CURRENTS"},"data":[0,0,0,-0.0191,-0.0192,-0.0209,-0.0209,-0.0005,-0.0003,0,0,0,0,0,0,0,0,0,0,0,-0.0173,-0.0174,-0.0191,-0.0192,-0.0209,-0.0209,-0.0005,-0.0002,0,0,0,0,0,0,0,0,0,0,0,-0.0173,-0.0174,-0.0174,-0.0193,-0.0209,-0.0209,-0.0006,-0.0043,0,0,0,0,0,0,0,0,0,0,-0.0053,-0.0078,-0.0173,-0.0174,-0.0193,-0.0209,-0.0209,-0.0047,-0.0041,0.006,0,0.0044,0,0.0016,0.0014,0.0015,0,0,0,-0.0169,-0.0084,-0.0093,-0.0174,-0.0193,-0.0209,-0.0195,-0.0045,-0.0038,0.007,0.0046,0.0051,0.0019,0.0016,0.0017,0.0349,0.0351,0,0,-0.0168,-0.016,-0.01,-0.0089,-0.021,-0.0195,-0.0196,-0.0043,-0.0031,0.0046,0.0055,0.0023,0.0017,0.0019,0.0348,0.035,0,0,0,-0.0181,-0.016,-0.0177,-0.0096,-0.0122,-0.0196,-0.0197,-0.0038,-0.0046,0.0057,0.0025,0.0019,0.0022,0.0346,0.0349,0.0356,0,0,0,-0.0179,-0.017,-0.0177,-0.017,-0.0127,-0.0112,-0.0195,-0.0056,-0.0042,0.0024,0.0019,0.0024,0.0344,0.0347,0.0351,0.0286,0,0,0,-0.017,-0.0168,-0.0177,-0.017,-0.0191,-0.0117,-0.0116,-0.0055,-0.006,0.0015,0.0025,0.0342,0.0347,0.0347,0.0283,0.02,0,0,0,-0.0152,-0.0185,-0.0176,-0.0196,-0.0192,-0.0105,-0.0118,-0.0055,0.001,0.002,0.0344,0.0348,0.0346,0.0281,0.02,0.0112,0.0106,0,0,-0.0189,-0.0189,-0.0196,-0.0191,-0.0104,-0.01,0.0042,0.0092,0.012,0.0309,0.0315,0.0353,0.0283,0.02,0.0357,0.0342,0,0,0,-0.0204,-0.0203,-0.0176,-0.0126,-0.005,0.0073,0.014,0.0179,0.0293,0.017,0.0438,0.0393,0.0339,0.0291,0.0282,0.0472,0.0368,0.0367,0.0367,-0.0229,-0.0178,-0.0118,-0.0017,0.0079,0.0223,0.0286,0.0377,0.0415,0.0469,0.0465,0.0491,0.0451,0.044,0.0644,0.0577,0.0578,0.0578,0.0578,-0.0249,-0.0207,-0.0061,-0.0005,0.0189,0.0331,0.0485,0.0489,0.053,0.0573,0.0521,0.0385,0.0429,0.065,0.058,0.0579,0.0579,0.0579,0.0579,-0.0277,-0.0234,-0.0199,-0.0033,0.0159,0.0345,0.0385,0.0456,0.0495,0.047,0.0352,0.035,0.0472,0.0427,0.0427,0.0426,0.0426,0.0425,0.0425,-0.0322,-0.026,-0.022,-0.0063,0.0049,0.0163,0.0277,0.0254,0.0261,0.0313,0.0312,0.0538,0.0442,0.0365,0.0416,0.0418,0.0419,0.042,0.042,-0.0348,-0.0348,-0.0289,-0.0221,-0.0029,-0.0023,0.0052,-0.0009,-0.0015,-0.0042,0.0381,0.0226,0.0177,0.0186,0.0105,0.0084,0.0084,0.0084,0.0084,-0.0364,-0.0361,-0.0297,-0.0222,-0.015,-0.0092,-0.0259,-0.0224,0.0041,0.0258,0.0358,0.0459,0.0464,0.044,0.0443,0.0372,0.042,0.0421,0.0422,-0.0343,-0.0335,-0.0296,-0.0249,-0.017,-0.0229,-0.0394,-0.0289,0.0237,0.0462,0.0648,0.0633,0.0817,0.0808,0.0798,0.0788,0.0679,0,0]}],[{"header":{"parameterUnit":"m.s-1","parameterCategory":2,"la1":30.2992,"la2":30.254,"lo1":-89.0895,"lo2":-89.0443,"dy":0.0025,"dx":0.0025,"nx":19,"ny":19,"refTime":"2026-04-15T03:00:00:Z","depth":"2","parameterNumber":2,"parameterNumberName":"U-component_of_CURRENTS"},"data":[0,0,0,-0.1805,-0.1807,-0.1868,-0.1868,-0.1801,-0.18,0,0,0,0,0,0,0,0,0,0,0,-0.1766,-0.1766,-0.1805,-0.1807,-0.1868,-0.1868,-0.1801,-0.18,0,0,0,0,0,0,0,0,0,0,0,-0.1766,-0.1766,-0.1767,-0.1807,-0.1868,-0.1868,-0.1801,-0.1787,0,0,0,0,0,0,0,0,0,0,-0.1745,-0.1721,-0.1766,-0.1767,-0.1808,-0.1868,-0.1868,-0.1788,-0.1788,-0.1736,0,-0.1747,0,-0.1783,-0.1793,-0.1793,0,0,0,-0.1792,-0.1721,-0.1757,-0.1767,-0.1809,-0.1868,-0.1836,-0.1789,-0.1789,-0.1735,-0.1747,-0.1746,-0.1782,-0.1793,-0.1792,-0.1656,-0.1655,0,0,-0.1789,-0.1754,-0.1758,-0.1757,-0.1824,-0.1835,-0.1838,-0.1791,-0.1774,-0.1747,-0.1746,-0.1781,-0.1792,-0.1791,-0.1657,-0.1656,0,0,0,-0.1789,-0.1751,-0.1791,-0.1758,-0.1788,-0.1837,-0.1841,-0.1776,-0.1795,-0.1745,-0.178,-0.1791,-0.179,-0.1658,-0.1657,-0.1649,0,0,0,-0.1786,-0.1754,-0.1789,-0.1766,-0.179,-0.18,-0.1827,-0.1798,-0.1795,-0.178,-0.1791,-0.1789,-0.1659,-0.1657,-0.1651,-0.164,0,0,0,-0.1763,-0.1751,-0.1763,-0.1765,-0.1803,-0.1803,-0.1819,-0.1799,-0.1816,-0.1793,-0.1789,-0.1659,-0.1657,-0.1653,-0.1643,-0.1632,0,0,0,-0.1719,-0.1717,-0.1762,-0.1773,-0.1803,-0.1821,-0.182,-0.1813,-0.1793,-0.1791,-0.1658,-0.1657,-0.1653,-0.1645,-0.1633,-0.1629,-0.1621,0,0,-0.1694,-0.1713,-0.1726,-0.1769,-0.1793,-0.1812,-0.1788,-0.1764,-0.1742,-0.1663,-0.1661,-0.165,-0.1644,-0.1632,-0.1524,-0.1519,0,0,0,-0.1705,-0.1704,-0.1723,-0.175,-0.1783,-0.1774,-0.1762,-0.1735,-0.1671,-0.1727,-0.1615,-0.161,-0.1604,-0.1603,-0.1599,-0.1648,-0.1648,-0.1648,-0.1649,-0.1599,-0.1654,-0.1661,-0.1713,-0.1717,-0.1726,-0.1703,-0.1649,-0.1637,-0.1594,-0.1579,-0.1527,-0.1524,-0.1521,-0.1552,-0.1552,-0.1552,-0.1552,-0.1552,-0.1558,-0.1575,-0.1612,-0.1629,-0.1644,-0.1612,-0.1598,-0.1589,-0.1526,-0.1522,-0.1518,-0.1562,-0.1516,-0.1551,-0.1551,-0.1551,-0.1551,-0.1551,-0.1551,-0.1494,-0.1513,-0.1514,-0.1532,-0.1518,-0.1537,-0.1529,-0.1508,-0.1498,-0.1491,-0.149,-0.1491,-0.1544,-0.149,-0.1489,-0.1489,-0.1489,-0.1489,-0.1489,-0.1437,-0.1449,-0.1422,-0.1438,-0.1437,-0.1446,-0.1469,-0.1496,-0.1493,-0.1464,-0.1464,-0.1506,-0.1508,-0.1538,-0.1487,-0.1488,-0.1488,-0.1488,-0.1488,-0.1408,-0.1377,-0.1355,-0.1341,-0.1362,-0.1393,-0.1447,-0.1513,-0.1512,-0.1527,-0.1453,-0.1454,-0.1457,-0.146,-0.1488,-0.1427,-0.1427,-0.1427,-0.1427,-0.1368,-0.1362,-0.1302,-0.1282,-0.1317,-0.1369,-0.1413,-0.1366,-0.1367,-0.1285,-0.1291,-0.1296,-0.1302,-0.1297,-0.1304,-0.1328,-0.1225,-0.1225,-0.1224,-0.1354,-0.134,-0.1282,-0.125,-0.1297,-0.1373,-0.134,-0.1129,-0.1082,-0.1211,-0.1202,-0.1424,-0.1449,-0.1452,-0.1461,-0.1465,-0.1511,0,0]},{"header":{"parameterUnit":"m.s-1","parameterCategory":2,"la1":30.2992,"la2":30.254,"lo1":-89.0895,"lo2":-89.0443,"dy":0.0025,"dx":0.0025,"nx":19,"ny":19,"refTime":"2026-04-15T03:00:00:Z","depth":"2","parameterNumber":3,"parameterNumberName":"V-component_of_CURRENTS"},"data":[0,0,0,-0.0321,-0.0321,-0.03,-0.03,-0.0163,-0.0162,0,0,0,0,0,0,0,0,0,0,0,-0.0325,-0.0325,-0.0321,-0.0321,-0.03,-0.03,-0.0164,-0.0162,0,0,0,0,0,0,0,0,0,0,0,-0.0325,-0.0325,-0.0325,-0.0321,-0.03,-0.03,-0.0164,-0.0204,0,0,0,0,0,0,0,0,0,0,-0.0237,-0.0276,-0.0325,-0.0325,-0.0321,-0.03,-0.03,-0.0207,-0.0201,-0.0145,0,-0.015,0,-0.0156,-0.0151,-0.0151,0,0,0,-0.0309,-0.0281,-0.0262,-0.0325,-0.0321,-0.03,-0.0306,-0.0205,-0.0198,-0.0137,-0.0149,-0.0144,-0.0154,-0.015,-0.015,-0.0101,-0.0101,0,0,-0.031,-0.0327,-0.0267,-0.0259,-0.0323,-0.0307,-0.0306,-0.0202,-0.0203,-0.0148,-0.0142,-0.0152,-0.0149,-0.0148,-0.01,-0.0101,0,0,0,-0.0321,-0.0328,-0.0315,-0.0263,-0.027,-0.0307,-0.0305,-0.0208,-0.0201,-0.0141,-0.015,-0.0148,-0.0146,-0.0099,-0.01,-0.0166,0,0,0,-0.0321,-0.0336,-0.0315,-0.0326,-0.0273,-0.0258,-0.0314,-0.0208,-0.0197,-0.0151,-0.0148,-0.0145,-0.0099,-0.01,-0.0163,-0.0152,0,0,0,-0.0324,-0.0336,-0.0334,-0.0327,-0.0323,-0.0261,-0.0248,-0.0206,-0.0202,-0.0151,-0.0145,-0.0098,-0.01,-0.016,-0.0149,-0.0102,0,0,0,-0.0341,-0.0378,-0.0335,-0.0369,-0.0323,-0.0327,-0.0249,-0.0222,-0.0184,-0.0148,-0.0099,-0.01,-0.0159,-0.0146,-0.0101,-0.0037,-0.0037,0,0,-0.0402,-0.0386,-0.0403,-0.0365,-0.0395,-0.0328,-0.0342,-0.0244,-0.019,-0.012,-0.012,-0.0164,-0.0148,-0.0102,-0.0127,-0.0123,0,0,0,-0.0432,-0.0452,-0.0451,-0.0454,-0.0426,-0.0392,-0.0321,-0.0283,-0.0224,-0.0178,-0.0177,-0.0164,-0.0133,-0.0093,-0.0092,-0.0108,-0.0107,-0.0107,-0.0107,-0.0577,-0.0537,-0.0568,-0.0523,-0.0505,-0.0431,-0.0389,-0.0324,-0.0273,-0.0266,-0.023,-0.0252,-0.0216,-0.0212,-0.0263,-0.0263,-0.0264,-0.0264,-0.0264,-0.0691,-0.0702,-0.0639,-0.0652,-0.0577,-0.0562,-0.0448,-0.0396,-0.0309,-0.03,-0.0266,-0.018,-0.0213,-0.0269,-0.0268,-0.0268,-0.0267,-0.0267,-0.0266,-0.0793,-0.0784,-0.0772,-0.0754,-0.071,-0.0621,-0.0541,-0.0444,-0.0352,-0.0317,-0.0214,-0.0212,-0.0235,-0.0292,-0.0292,-0.0292,-0.0292,-0.0292,-0.0292,-0.0892,-0.087,-0.089,-0.0853,-0.0824,-0.0749,-0.0582,-0.0493,-0.033,-0.0245,-0.0244,-0.0259,-0.0258,-0.0235,-0.0289,-0.0289,-0.0289,-0.029,-0.029,-0.0983,-0.0977,-0.1008,-0.0997,-0.0921,-0.0835,-0.0673,-0.043,-0.0315,-0.0219,-0.0184,-0.0187,-0.0134,-0.0135,-0.0108,-0.0125,-0.0125,-0.0125,-0.0125,-0.1048,-0.1049,-0.108,-0.1069,-0.1014,-0.0871,-0.0664,-0.0402,-0.0188,-0.0081,-0.0083,-0.0101,-0.0108,-0.0054,-0.0057,-0.0028,-0.0025,-0.0025,-0.0025,-0.1091,-0.1102,-0.113,-0.1119,-0.1047,-0.0896,-0.0654,-0.0315,-0.0046,-0.0024,-0.0104,-0.0111,-0.0145,-0.0153,-0.0074,-0.0077,-0.0032,0,0]}],[{"header":{"parameterUnit":"m.s-1","parameterCategory":2,"la1":30.2992,"la2":30.254,"lo1":-89.0895,"lo2":-89.0443,"dy":0.0025,"dx":0.0025,"nx":19,"ny":19,"refTime":"2026-04-15T03:00:00:Z","depth":"4","parameterNumber":2,"parameterNumberName":"U-component_of_CURRENTS"},"data":[0,0,0,-0.0929,-0.093,-0.1003,-0.1003,-0.1065,-0.1065,0,0,0,0,0,0,0,0,0,0,0,-0.0911,-0.0912,-0.0928,-0.093,-0.1003,-0.1003,-0.1065,-0.1065,0,0,0,0,0,0,0,0,0,0,0,-0.0911,-0.0912,-0.0912,-0.093,-0.1003,-0.1003,-0.1065,-0.1021,0,0,0,0,0,0,0,0,0,0,-0.0955,-0.0947,-0.0911,-0.0912,-0.093,-0.1002,-0.1003,-0.1019,-0.1024,-0.1018,0,-0.1028,0,-0.1037,-0.1067,-0.1067,0,0,0,-0.0944,-0.0944,-0.0951,-0.0912,-0.0931,-0.1002,-0.0974,-0.1022,-0.1027,-0.1023,-0.1029,-0.1031,-0.1038,-0.1067,-0.1067,-0.1148,-0.1149,0,0,-0.094,-0.0937,-0.0947,-0.0954,-0.0947,-0.0971,-0.0976,-0.1025,-0.1036,-0.1029,-0.1033,-0.1039,-0.1067,-0.1068,-0.1148,-0.1148,0,0,0,-0.0919,-0.0935,-0.0942,-0.0951,-0.0961,-0.0973,-0.0978,-0.1034,-0.1033,-0.1034,-0.104,-0.1068,-0.1068,-0.1147,-0.1148,-0.118,0,0,0,-0.0917,-0.0921,-0.094,-0.0941,-0.096,-0.1004,-0.0986,-0.103,-0.1036,-0.104,-0.1068,-0.1068,-0.1146,-0.1147,-0.1177,-0.1191,0,0,0,-0.0908,-0.092,-0.0925,-0.094,-0.0963,-0.1004,-0.1007,-0.1032,-0.1039,-0.1067,-0.1068,-0.1146,-0.1147,-0.1175,-0.1188,-0.1206,0,0,0,-0.0908,-0.0917,-0.0926,-0.0948,-0.0962,-0.1016,-0.1007,-0.1055,-0.1084,-0.1068,-0.1146,-0.1148,-0.1174,-0.1186,-0.1204,-0.1035,0,0,0,-0.0915,-0.0918,-0.0932,-0.0941,-0.098,-0.1007,-0.1072,-0.1102,-0.1105,-0.1128,-0.113,-0.1178,-0.1188,-0.1206,-0.1128,0,0,0,0,-0.0932,-0.0937,-0.0953,-0.0981,-0.1021,-0.107,-0.1109,-0.1136,-0.1181,-0.1126,-0.1201,-0.1206,-0.1216,-0.1113,-0.1155,-0.1155,-0.1155,-0.1155,-0.1155,-0.0927,-0.0949,-0.098,-0.1013,-0.1057,-0.1125,-0.1166,-0.121,-0.1216,-0.125,-0.1249,-0.1308,-0.1203,-0.1268,-0.1268,-0.1269,-0.1269,-0.1269,-0.1269,-0.0925,-0.0936,-0.0994,-0.1031,-0.1093,-0.1159,-0.1233,-0.1253,-0.1316,-0.1313,-0.1321,-0.1175,-0.1273,-0.1272,-0.1271,-0.1271,-0.1271,-0.127,-0.127,-0.0911,-0.0916,-0.096,-0.1024,-0.1107,-0.1183,-0.124,-0.1306,-0.1342,-0.1361,-0.1257,-0.1334,-0.1311,-0.1377,-0.1377,-0.1377,-0.1377,-0.1377,-0.1377,-0.0862,-0.0904,-0.093,-0.1013,-0.1063,-0.1148,-0.1259,-0.1277,-0.1337,-0.1283,-0.1385,-0.1345,-0.1341,-0.1318,-0.138,-0.138,-0.1379,-0.1379,-0.1379,-0.0808,-0.0838,-0.0863,-0.0907,-0.0997,-0.1061,-0.1186,-0.1201,-0.1219,-0.1188,-0.1227,-0.1234,-0.1204,-0.1204,-0.1174,-0.1197,-0.1195,-0.1193,0,-0.0762,-0.078,-0.0791,-0.082,-0.0868,-0.0984,-0.0985,-0.1035,-0.1086,-0.1065,-0.1205,-0.1249,-0.1253,-0.1218,-0.1215,-0.1179,0,0,0,-0.072,-0.0731,-0.072,-0.075,-0.0793,-0.0865,-0.0979,-0.0955,-0.1103,-0.1043,-0.1144,-0.1157,-0.1251,-0.1388,-0.1358,-0.1354,-0.1314,0,0]},{"header":{"parameterUnit":"m.s-1","parameterCategory":2,"la1":30.2992,"la2":30.254,"lo1":-89.0895,"lo2":-89.0443,"dy":0.0025,"dx":0.0025,"nx":19,"ny":19,"refTime":"2026-04-15T03:00:00:Z","depth":"4","parameterNumber":3,"parameterNumberName":"V-component_of_CURRENTS"},"data":[0,0,0,0.0014,0.0015,0.0067,0.0068,0.0113,0.0113,0,0,0,0,0,0,0,0,0,0,0,-0.0005,-0.0005,0.0014,0.0015,0.0067,0.0068,0.0112,0.0113,0,0,0,0,0,0,0,0,0,0,0,-0.0005,-0.0005,-0.0005,0.0015,0.0067,0.0068,0.0112,0.0081,0,0,0,0,0,0,0,0,0,0,0.0034,0.0004,-0.0005,-0.0005,0.0016,0.0067,0.0068,0.008,0.0083,0.008,0,0.0082,0,0.0094,0.0114,0.0114,0,0,0,0.0025,0.0002,0.0025,-0.0005,0.0016,0.0067,0.0046,0.0082,0.0085,0.0084,0.0082,0.0084,0.0095,0.0115,0.0115,0.0123,0.0123,0,0,0.0022,-0.0003,0.0023,0.0027,0.0021,0.0045,0.0048,0.0084,0.0077,0.0083,0.0086,0.0095,0.0115,0.0115,0.0123,0.0123,0,0,0,0.0007,-0.0005,0.0018,0.0025,0.0034,0.0046,0.005,0.0076,0.0086,0.0086,0.0096,0.0115,0.0115,0.0123,0.0123,0.0087,0,0,0,0.0006,-0.0014,0.0017,0.0002,0.0033,0.0055,0.004,0.0084,0.0089,0.0096,0.0115,0.0115,0.0123,0.0123,0.0088,0.0054,0,0,0,-0.0006,-0.0015,-0.0009,0.0,0.002,0.0055,0.0068,0.0086,0.0094,0.0114,0.0115,0.0124,0.0123,0.0089,0.0057,0.0062,0,0,0,-0.0031,-0.0051,-0.001,-0.0034,0.002,0.0025,0.0068,0.0073,0.0085,0.0115,0.0123,0.0123,0.0089,0.0058,0.0063,0.0041,0,0,0,-0.0073,-0.0057,-0.0071,-0.0034,-0.005,0.002,0.0015,0.0052,0.0084,0.0112,0.0113,0.0087,0.0057,0.0062,0.0029,0,0,0,0,-0.0095,-0.0102,-0.0103,-0.01,-0.0076,-0.0046,0.0003,0.0037,0.0077,0.009,0.0093,0.0075,0.008,0.0071,0.0122,0.0122,0.0122,0.0122,0.0122,-0.0161,-0.0148,-0.0174,-0.0152,-0.0144,-0.0087,-0.0056,0.0004,0.004,0.0058,0.005,0.0033,0.0022,0.0066,0.0066,0.0066,0.0066,0.0066,0.0066,-0.0213,-0.0219,-0.0212,-0.0233,-0.0197,-0.0185,-0.0103,-0.0059,-0.0001,0.0028,0.0036,0.0038,0.0062,0.0063,0.0063,0.0064,0.0064,0.0064,0.0065,-0.0236,-0.0238,-0.0257,-0.0281,-0.0282,-0.0237,-0.021,-0.0137,-0.0054,-0.0042,-0.0026,0.0011,0.001,-0.0027,-0.0027,-0.0027,-0.0027,-0.0027,-0.0027,-0.0241,-0.026,-0.0306,-0.0329,-0.035,-0.0343,-0.0269,-0.0222,-0.0133,-0.0082,-0.0052,0.0002,0.0005,0.0005,-0.0029,-0.0029,-0.0029,-0.0029,-0.0029,-0.0252,-0.0276,-0.034,-0.038,-0.0429,-0.042,-0.0362,-0.0256,-0.0204,-0.0146,-0.0087,-0.0083,-0.007,-0.0065,-0.0067,-0.0124,-0.0125,-0.0125,0,-0.026,-0.0277,-0.0374,-0.0445,-0.0486,-0.0463,-0.0401,-0.033,-0.0219,-0.0219,-0.0206,-0.0145,-0.014,-0.013,-0.0126,-0.0132,0,0,0,-0.0274,-0.0303,-0.0377,-0.0461,-0.0514,-0.044,-0.0383,-0.0342,-0.0239,-0.0185,-0.0136,-0.0133,-0.0101,-0.0035,-0.0007,-0.0003,-0.0002,0,0]}]]